Tracking 29528 objects as of 12-Sep-2024
HD Live streaming from Space Station
objects crossing your sky now

THORAD AGENA D DEB

Track THORAD AGENA D DEB now!
10-day predictions


NORAD ID: 22533
Int'l Code: 1970-025QP
Perigee: 1,005.5 km
Apogee: 1,012.3 km
Inclination: 100.1 °
Period: 105.2 minutes
Semi major axis: 7379 km
RCS: 0.0131 m2 (small)
Launch date: April 8, 1970
Source: United States (US)
Launch site: AIR FORCE WESTERN TEST RANGE (AFWTR)

Note: This is SATELLITE DEBRIS
Your satellite tracking list
Your tracking list is empty




NASA's NSSDC Master Catalog

Two Line Element Set (TLE):
1 22533U 70025QP  24255.85627461  .00004847  00000-0  56241-2 0  9999
2 22533 100.0537  37.7741 0004606  88.9871  66.8347 13.69401215565146
Source of the keplerian elements: AFSPC